FNF53 EKCH-ESGG

Flight info

Callsign FNF53
Flight time 0h 28m
Altitude 22000
Route VEDAR2C VEDAR L997 RISMA RISMA4L
Aircraft C25C/M-SDE2E3FGHRWXY/LB1

Departure

Time 2026-04-21 18:34
Airport Copenhagen Kastrup Airport (EKCH)

Arrival

Time 2026-04-21 19:03
Airport Göteborg Landvetter Airport (ESGG)
Time Latitude Longitude Altitude Speed Heading
2026-04-21 18:16 55.61908 12.66496 11 ft 0 kts 348°
2026-04-21 18:24 55.61905 12.66497 11 ft 2 kts 348°
2026-04-21 18:24 55.61891 12.66502 11 ft 2 kts 348°
2026-04-21 18:24 55.61875 12.66508 11 ft 2 kts 348°
2026-04-21 18:24 55.61862 12.66516 11 ft 2 kts 316°
2026-04-21 18:25 55.61856 12.66543 11 ft 2 kts 256°
2026-04-21 18:25 55.61856 12.66546 11 ft 0 kts 249°
2026-04-21 18:28 55.61850 12.66516 11 ft 8 kts 250°
2026-04-21 18:28 55.61805 12.66423 11 ft 11 kts 195°
2026-04-21 18:29 55.61737 12.66388 12 ft 10 kts 200°
2026-04-21 18:29 55.61663 12.66275 13 ft 17 kts 237°
2026-04-21 18:29 55.61646 12.66055 17 ft 24 kts 284°
2026-04-21 18:29 55.61732 12.65759 17 ft 27 kts 302°
2026-04-21 18:30 55.61837 12.65476 12 ft 28 kts 304°
2026-04-21 18:30 55.61945 12.65187 11 ft 27 kts 304°
2026-04-21 18:30 55.62003 12.64944 14 ft 1 kts 234°
2026-04-21 18:30 55.61963 12.64899 12 ft 15 kts 213°
2026-04-21 18:31 55.61867 12.64791 12 ft 16 kts 213°
2026-04-21 18:31 55.61793 12.64704 14 ft 11 kts 215°
2026-04-21 18:31 55.61732 12.64633 15 ft 11 kts 213°
2026-04-21 18:31 55.61675 12.64558 16 ft 9 kts 222°
2026-04-21 18:32 55.61652 12.64499 17 ft 3 kts 250°
2026-04-21 18:32 55.61649 12.64381 18 ft 15 kts 266°
2026-04-21 18:32 55.61641 12.64212 21 ft 12 kts 262°
2026-04-21 18:32 55.61622 12.64076 23 ft 11 kts 232°
2026-04-21 18:33 55.61593 12.64021 20 ft 0 kts 225°
2026-04-21 18:34 55.61587 12.64012 20 ft 4 kts 220°
2026-04-21 18:34 55.61271 12.63521 20 ft 118 kts 221°
2026-04-21 18:34 55.60452 12.62261 292 ft 182 kts 220°
2026-04-21 18:34 55.59378 12.60638 1081 ft 218 kts 224°
2026-04-21 18:35 55.58612 12.59426 2057 ft 217 kts 224°
2026-04-21 18:35 55.57062 12.57016 3728 ft 244 kts 223°
2026-04-21 18:35 55.55903 12.54507 4012 ft 290 kts 245°
2026-04-21 18:35 55.55647 12.51179 4082 ft 274 kts 281°
2026-04-21 18:36 55.56101 12.48072 5043 ft 256 kts 287°
2026-04-21 18:36 55.56526 12.45058 6422 ft 258 kts 286°
2026-04-21 18:36 55.56907 12.41774 7059 ft 281 kts 282°
2026-04-21 18:36 55.57210 12.38511 7376 ft 272 kts 282°
2026-04-21 18:37 55.57583 12.35215 7370 ft 273 kts 290°
2026-04-21 18:37 55.58629 12.32496 7360 ft 268 kts 319°
2026-04-21 18:37 55.60215 12.30846 7368 ft 266 kts 347°
2026-04-21 18:37 55.62044 12.30333 7371 ft 268 kts 355°
2026-04-21 18:38 55.63908 12.29978 7376 ft 270 kts 358°
2026-04-21 18:38 55.65788 12.29693 7380 ft 273 kts 356°
2026-04-21 18:38 55.67667 12.29342 7383 ft 269 kts 356°
2026-04-21 18:38 55.69511 12.28986 7377 ft 269 kts 356°
2026-04-21 18:39 55.71445 12.28627 7483 ft 277 kts 356°
2026-04-21 18:39 55.73337 12.28260 8898 ft 262 kts 356°
2026-04-21 18:39 55.75165 12.27927 10670 ft 275 kts 357°
2026-04-21 18:39 55.77154 12.27560 11300 ft 301 kts 357°
2026-04-21 18:40 55.79333 12.27338 11368 ft 326 kts
2026-04-21 18:40 55.81645 12.27097 11375 ft 339 kts 358°
2026-04-21 18:40 55.83234 12.26884 11371 ft 338 kts 358°
2026-04-21 18:40 55.86326 12.26553 11371 ft 336 kts 359°
2026-04-21 18:41 55.88656 12.26345 11447 ft 335 kts 359°
2026-04-21 18:41 55.90983 12.26111 11451 ft 336 kts 359°
2026-04-21 18:41 55.93337 12.25874 11584 ft 344 kts 359°
2026-04-21 18:41 55.95695 12.25623 12903 ft 335 kts 359°
2026-04-21 18:42 55.98034 12.25394 13912 ft 341 kts 360°
2026-04-21 18:42 56.00399 12.25154 14919 ft 339 kts 360°
2026-04-21 18:42 56.02763 12.24919 15780 ft 347 kts
2026-04-21 18:42 56.05183 12.24674 16473 ft 356 kts
2026-04-21 18:43 56.07700 12.24419 17057 ft 367 kts 360°
2026-04-21 18:43 56.10240 12.24151 18362 ft 363 kts 360°
2026-04-21 18:43 56.12786 12.23557 19363 ft 377 kts 354°
2026-04-21 18:43 56.15395 12.22804 19364 ft 385 kts 355°
2026-04-21 18:44 56.18060 12.22075 19367 ft 378 kts 355°
2026-04-21 18:44 56.20564 12.21392 19359 ft 352 kts 355°
2026-04-21 18:44 56.22968 12.20734 19349 ft 355 kts 355°
2026-04-21 18:44 56.25474 12.20063 19346 ft 373 kts 355°
2026-04-21 18:45 56.28048 12.19347 19349 ft 381 kts 355°
2026-04-21 18:45 56.30659 12.18616 19350 ft 378 kts 355°
2026-04-21 18:45 56.33251 12.17892 19358 ft 376 kts 355°
2026-04-21 18:45 56.35843 12.17187 19358 ft 384 kts 355°
2026-04-21 18:46 56.38498 12.16453 19355 ft 378 kts 354°
2026-04-21 18:46 56.41044 12.15733 19354 ft 367 kts 354°
2026-04-21 18:46 56.43556 12.15037 19345 ft 363 kts 355°
2026-04-21 18:46 56.46051 12.14348 19347 ft 366 kts 355°
2026-04-21 18:47 56.48591 12.13648 19349 ft 373 kts 354°
2026-04-21 18:47 56.51177 12.12919 19351 ft 379 kts 354°
2026-04-21 18:47 56.53761 12.12199 19352 ft 383 kts 354°
2026-04-21 18:47 56.56404 12.11454 19345 ft 385 kts 354°
2026-04-21 18:48 56.59037 12.10722 19347 ft 377 kts 354°
2026-04-21 18:48 56.61572 12.10002 19345 ft 365 kts 354°
2026-04-21 18:48 56.64505 12.09193 19348 ft 374 kts 354°
2026-04-21 18:48 56.67071 12.08469 19279 ft 378 kts 354°
2026-04-21 18:49 56.69703 12.07729 19282 ft 387 kts 354°
2026-04-21 18:49 56.72308 12.06986 18875 ft 364 kts 354°
2026-04-21 18:49 56.73967 12.06512 17554 ft 371 kts 354°
2026-04-21 18:49 56.77206 12.05605 17223 ft 336 kts 354°
2026-04-21 18:50 56.79614 12.04935 16795 ft 364 kts 354°
2026-04-21 18:50 56.82130 12.04219 16422 ft 359 kts 353°
2026-04-21 18:50 56.84518 12.03533 16360 ft 347 kts 354°
2026-04-21 18:50 56.86917 12.02849 16356 ft 354 kts 354°
2026-04-21 18:51 56.89372 12.02165 16355 ft 359 kts 354°
2026-04-21 18:51 56.91854 12.01451 16354 ft 363 kts 353°
2026-04-21 18:51 56.94363 12.00738 16357 ft 366 kts 353°
2026-04-21 18:51 56.96892 12.00009 16359 ft 369 kts 353°
2026-04-21 18:52 56.99434 11.99285 16363 ft 371 kts 353°
2026-04-21 18:52 57.01982 11.98553 16365 ft 367 kts 353°
2026-04-21 18:52 57.04456 11.98037 16353 ft 353 kts
2026-04-21 18:52 57.06937 11.98633 16347 ft 368 kts 10°
2026-04-21 18:53 57.09422 11.99203 16037 ft 354 kts
2026-04-21 18:53 57.11887 11.99801 14667 ft 362 kts
2026-04-21 18:53 57.14353 12.00428 13193 ft 354 kts
2026-04-21 18:53 57.16763 12.01042 12401 ft 341 kts
2026-04-21 18:54 57.19104 12.01613 11270 ft 341 kts
2026-04-21 18:54 57.21453 12.02200 10460 ft 336 kts
2026-04-21 18:54 57.23718 12.02757 9347 ft 329 kts
2026-04-21 18:54 57.25972 12.03330 8392 ft 325 kts
2026-04-21 18:55 57.27465 12.03698 7734 ft 329 kts
2026-04-21 18:55 57.30402 12.04433 6894 ft 299 kts
2026-04-21 18:55 57.32375 12.04926 6371 ft 273 kts
2026-04-21 18:55 57.34185 12.05379 5901 ft 252 kts
2026-04-21 18:56 57.35853 12.05803 5590 ft 238 kts
2026-04-21 18:56 57.37489 12.06212 5153 ft 242 kts
2026-04-21 18:56 57.39135 12.06632 4881 ft 234 kts
2026-04-21 18:56 57.40687 12.07014 4458 ft 219 kts
2026-04-21 18:57 57.42149 12.07386 3832 ft 191 kts
2026-04-21 18:57 57.43432 12.07718 3290 ft 185 kts
2026-04-21 18:57 57.44730 12.08073 3008 ft 197 kts
2026-04-21 18:57 57.45935 12.09162 3003 ft 190 kts 36°
2026-04-21 18:58 57.46988 12.10433 3002 ft 175 kts 26°
2026-04-21 18:58 57.47689 12.11122 3002 ft 172 kts 27°
2026-04-21 18:58 57.48807 12.12167 3003 ft 180 kts 25°
2026-04-21 18:58 57.50230 12.13462 3005 ft 169 kts 25°
2026-04-21 18:59 57.51381 12.14497 3010 ft 198 kts 24°
2026-04-21 18:59 57.52600 12.15588 3014 ft 181 kts 25°
2026-04-21 18:59 57.53716 12.16597 2955 ft 183 kts 25°
2026-04-21 18:59 57.54882 12.17651 2713 ft 190 kts 25°
2026-04-21 19:00 57.55663 12.18363 2546 ft 186 kts 25°
2026-04-21 19:00 57.56820 12.19402 2298 ft 183 kts 24°
2026-04-21 19:00 57.57959 12.20430 2041 ft 182 kts 24°
2026-04-21 19:00 57.59468 12.21801 1720 ft 170 kts 24°
2026-04-21 19:01 57.60103 12.22381 1562 ft 141 kts 24°
2026-04-21 19:01 57.60947 12.23128 1370 ft 127 kts 22°
2026-04-21 19:01 57.61890 12.23994 1147 ft 103 kts 23°
2026-04-21 19:01 57.62320 12.24384 1056 ft 106 kts 24°
2026-04-21 19:02 57.63013 12.25001 923 ft 113 kts 22°
2026-04-21 19:02 57.63709 12.25657 784 ft 114 kts 24°
2026-04-21 19:02 57.64430 12.26284 638 ft 116 kts 23°
2026-04-21 19:02 57.65143 12.26949 494 ft 107 kts 23°
2026-04-21 19:03 57.65724 12.27469 485 ft 79 kts 26°
2026-04-21 19:03 57.66155 12.27874 486 ft 61 kts 26°
2026-04-21 19:03 57.66494 12.28170 499 ft 36 kts 27°
2026-04-21 19:03 57.66620 12.28342 499 ft 20 kts 47°
2026-04-21 19:04 57.66704 12.28544 500 ft 19 kts 53°
2026-04-21 19:04 57.66761 12.28690 501 ft 4 kts 58°
2026-04-21 19:04 57.66761 12.28692 501 ft 0 kts 59°
2026-04-21 19:05 57.66796 12.28774 501 ft 25 kts 45°